LRTC Weather Reports


time (UTC)temp
C
wind
direction
speed
KPH
gust
KPH
rain 1hr
cm
rain 24hr
cm
rain mn
cm
humidity
%
barometer
mb
20260504014844 2 20 4.8 0.0 0.00 0.00 0.00 81 1015.0
20260504013349 2 20 4.8 0.0 0.00 0.00 0.00 81 1015.0
20260504012005 2 40 4.8 0.0 0.00 0.00 0.00 81 1016.0
20260504010344 2 40 4.8 0.0 0.00 0.00 0.00 81 1016.0
20260504005005 2 30 4.8 0.0 0.00 0.00 0.00 87 1016.0
20260504003344 2 30 4.8 0.0 0.00 0.00 0.00 87 1016.0
20260504001844 2 40 4.8 0.0 0.00 0.00 0.00 87 1016.0
20260504000346 2 40 4.8 0.0 0.00 0.00 0.00 87 1016.0
20260503233344 2 3.2 0.0 0.00 0.00 0.00 87 1017.0
20260503230356 2 3.2 0.0 0.00 0.00 0.00 87 1017.0
20260503221901 2 220 8.0 0.0 0.00 0.00 0.00 81 1017.0
20260503220426 2 220 8.0 0.0 0.00 0.00 0.00 81 1017.0
20260503213344 2 190 3.2 0.0 0.00 0.00 0.00 81 1017.0
20260503211845 3 10 4.8 0.0 0.00 0.00 0.00 81 1017.0
20260503210344 3 10 4.8 0.0 0.00 0.00 0.00 81 1017.0
20260503204851 6 3.2 0.0 0.00 0.00 0.00 71 1018.0
20260503203505 6 3.2 0.0 0.00 0.00 0.00 71 1018.0
20260503201844 6 20 3.2 0.0 0.00 0.00 0.00 71 1018.0
20260503200354 6 20 3.2 0.0 0.00 0.00 0.00 71 1018.0
20260503194910 6 30 4.8 0.0 0.00 0.00 0.00 71 1018.0
20260503193506 6 30 4.8 0.0 0.00 0.00 0.00 71 1018.0
20260503190344 7 230 4.8 0.0 0.00 0.00 0.00 62 1018.0
20260503185004 7 220 4.8 0.0 0.00 0.00 0.00 62 1019.0
20260503183344 7 220 4.8 0.0 0.00 0.00 0.00 62 1019.0
20260503181844 8 3.2 0.0 0.00 0.00 0.00 58 1018.0
20260503180344 8 3.2 0.0 0.00 0.00 0.00 58 1018.0
20260503174904 10 130 8.0 0.0 0.00 0.00 0.00 58 1018.0
20260503173409 10 130 8.0 0.0 0.00 0.00 0.00 58 1018.0
20260503171844 11 80 9.7 0.0 0.00 0.00 0.00 58 1018.0
20260503170345 11 80 9.7 0.0 0.00 0.00 0.00 58 1018.0
20260503150344 15 360 12.9 0.0 0.00 0.00 0.00 39 1018.0
20260503130345 13 40 14.5 0.0 0.00 0.00 0.00 44 1020.0
20260503110405 13 30 16.1 0.0 0.00 0.00 0.00 44 1021.0
20260503090405 12 50 14.5 0.0 0.00 0.00 0.00 47 1022.0
20260503080355 12 30 14.5 0.0 0.00 0.00 0.00 51 1022.0
20260503071843 12 20 14.5 0.0 0.00 0.00 0.00 58 1022.0
20260503070345 12 20 14.5 0.0 0.00 0.00 0.00 58 1022.0
20260503054844 8 10 12.9 0.0 0.00 0.00 0.00 71 1022.0
20260503053344 8 10 12.9 0.0 0.00 0.00 0.00 71 1022.0
20260503051844 7 340 14.5 0.0 0.00 0.00 0.00 76 1022.0
20260503050344 7 340 14.5 0.0 0.00 0.00 0.00 76 1022.0
20260503044844 6 350 12.9 0.0 0.00 0.00 0.00 81 1022.0
20260503043345 6 350 12.9 0.0 0.00 0.00 0.00 81 1022.0
20260503041844 5 340 11.3 0.0 0.00 0.00 0.00 87 1022.0
20260503040407 5 340 11.3 0.0 0.00 0.00 0.00 87 1022.0
20260503033344 3 350 9.7 0.0 0.00 0.00 0.00 87 1021.0
20260503030344 2 340 11.3 0.0 0.00 0.00 0.00 93 1021.0
20260503024859 2 340 14.5 0.0 0.00 0.00 0.00 93 1021.0
20260503023345 2 340 14.5 0.0 0.00 0.00 0.00 93 1021.0
20260503021844 3 330 9.7 0.0 0.00 0.00 0.00 93 1021.0
20260503020344 3 330 9.7 0.0 0.00 0.00 0.00 93 1021.0